Weather Roundup
Issued by NWS Springfield, MO

Home | Current Version | Previous Version | Text Only | Print | Product List | Glossary On
Versions: 1 2 3 4 5 6 7 8 9 10 11 12 13 14 15 16 17 18 19 20 21 22 23 24 25 26 27 28 29 30 31 32 33 34 35 36 37 38 39 40 41 42 43 44 45 46 47 48 49 50
390
NZUS99 KSGF 200457
HRRSGF

HOURLY WEATHER
NATIONAL WEATHER SERVICE SPRINGFIELD MO
1200 AM CDT SUN AUG 20 2017

......SGF CWA......

CITY           SKY/WX    TMP DP  RH WIND       PRES   REMARKS
SPRINGFIELD    PTCLDY    78  74  87 S8        30.01R
JOPLIN         PTCLDY    82  76  81 S8        29.98S
WEST PLAINS    CLOUDY    77  71  82 S6        30.04R
ROLLA          CLEAR     70  67  90 S6        30.01R

......SURROUNDING SGF CWA......

CITY           SKY/WX    TMP DP  RH WIND       PRES   REMARKS
CHANUTE        CLEAR     80  76  87 SE6       29.95S
PARSONS        PTCLDY    82  75  79 SE3       29.96S
COFFEYVILLE    CLOUDY    82  76  81 S7        29.94R
EMPORIA        CLEAR     79  74  84 SE9       29.93S
HARRISON AR    CLOUDY    78  75  90 SE5       30.04R

......KANSAS AND MISSOURI......

CITY           SKY/WX    TMP DP  RH WIND       PRES   REMARKS
KANSAS CTY INT CLOUDY    77  72  84 S12       29.93F
SEDALIA        CLEAR     73  72  96 SE3       29.97S
ST JOSEPH      CLEAR     75  71  87 SE5       29.91S
ST LOUIS       PTCLDY    81  68  64 SE5       29.97R
WICHITA        PTCLDY    78  71  79 SE7       29.92R
TOPEKA         CLEAR     82  76  81 S12       29.90F
OLATHE         CLEAR     75  74  96 S7        29.95F

......TENNESSEE......

CITY           SKY/WX    TMP DP  RH WIND       PRES   REMARKS
MEMPHIS        NOT AVBL
NASHVILLE      CLEAR     76  71  85 S5        30.02S

......ARKANSAS.......

CITY           SKY/WX    TMP DP  RH WIND       PRES   REMARKS
FAYETTEVILLE   CLEAR     73  73 100 CALM      30.03R
FT SMITH       PTCLDY    83  78  85 E3        29.97R HX  93
LITTLE ROCK    PTCLDY    80  78  94 CALM      29.98S

......OKLAHOMA.......

CITY           SKY/WX    TMP DP  RH WIND       PRES   REMARKS
TULSA          MOCLDY    87  75  67 S10       29.93S HX  96
PONCA CITY     MOCLDY    84  73  69 S5        29.93R HX  90
MCALESTER      CLEAR     84  75  74 S6        29.98S HX  92
OKLAHOMA CITY  PTCLDY    75  70  84 S7        29.98R

......IOWA............

CITY           SKY/WX    TMP DP  RH WIND       PRES   REMARKS
DES MOINES     NOT AVBL
QUAD CITIES    CLEAR     64  61  90 CALM      29.97R

......ILLINOIS........

CITY           SKY/WX    TMP DP  RH WIND       PRES   REMARKS
QUINCY         NOT AVBL
CHICAGO        CLEAR     70  55  59 S3        29.99R




USA.gov is the U.S. government's official web portal to all federal, state and local government web resources and services.